Regional Weather Roundup
Issued by NWS New Orleans/Baton Rouge, LA

Home | Current Version | Previous Version | Text Only | Print | Product List | Glossary On
Versions: 1 2 3 4 5 6 7 8 9 10 11 12 13 14 15 16 17 18 19 20 21 22 23 24 25 26 27
000
ASUS44 KLIX 261911
RWRLIX
NEW ORLEANS REGIONAL WEATHER ROUNDUP
NATIONAL WEATHER SERVICE NEW ORLEANS LA
200 PM CDT THU MAY 26 2016

NOTE: "FAIR" INDICATES FEW OR NO CLOUDS BELOW 12,000 FEET WITH NO
      SIGNIFICANT WEATHER AND/OR OBSTRUCTIONS TO VISIBILITY.
      SKY/WX - SKY CONDITION AND SIGNIFICANT WEATHER.
      TMP - AIR TEMPERATURE.     DP    - DEWPOINT TEMPERATURE.
      RH  - RELATIVE HUMIDITY.   PRES  - PRESSURE.
      HI  - HEAT INDEX.          WCI   - WIND CHILL INDEX.

*  THESE STATIONS ARE NOT NWS OR FAA STATIONS AND ARE NOT UNDER
   NWS QUALITY CONTROL.

LAZ038-040-048-061>063-065>067-069-262000-
SOUTHEAST LOUISIANA

CITY           SKY/WX    TMP DP  RH WIND       PRES   REMARKS
N.O. AUDUBON     N/A     87  70  57 MISG        N/A
N.O. INTL ARPT MOSUNNY   89  66  46 S16       30.05F
N.O. LAKEFRONT SUNNY     87  65  47 SE13G22   30.06F
N.O. DOWNTOWN*   N/A     87  68  52 SE9G16    30.06F
RESERVE*         N/A     88  71  56 S12G17    30.04S
SLIDELL        PTSUNNY   85  70  60 SE10      30.06F
BATON ROUGE    PTSUNNY   88  68  51 E13G18    30.02S
BOOTHVILLE     MOSUNNY   82  69  64 E13       30.08F
BELLE CHASSE   MOSUNNY   85  70  60 E13       30.06S
BOGALUSA*        N/A     89  65  44 SE8G16    30.07F
GALLIANO*      PTCLDY    86  71  59 SE10G17   30.06S
NEW ROADS*     MOCLDY    88  72  58 SE9       30.02S
GONZALES*      CLOUDY    86  71  61 SE6       30.03R
HAMMOND*       MOSUNNY   88  68  51 SE9G18    30.05S
HOUMA*         MOSUNNY   84  72  65 SE14      30.06
PORT FOURCHON* PTCLDY    82  73  74 SE12G17   30.06F

$$

MSZ070-080>082-262000-
SOUTHERN MISSISSIPPI

CITY           SKY/WX    TMP DP  RH WIND       PRES   REMARKS
MCCOMB         CLOUDY    85  68  56 SE8       30.05F
GULFPORT       SUNNY     83  67  58 SE14      30.09F
BILOXI         SUNNY     84  70  62 S9        30.09F
PASCAGOULA     MOSUNNY   85  68  56 MISG      30.10F
STENNIS ARPT*  MOSUNNY   84  64  51 SE13      30.08F

$$

COASTAL OBSERVATIONS
LAKE AND NEARSHORE STATIONS

STATION/POSITION TIME  TEMP    WIND        PRES    WAVE
                       AIR SEA DIR/SP/G            HT/PER
                 (UTC) (F)     (DEG/KT/KT) (MB)    (FT/S)
PASCAGOULA       1800   83     130/ 12/ 14 1019.3
WAVELAND YACHT   1800   79 80  140/ 12/ 14 1019.0
GRAND ISLE       1800   81 82  130/  7/ 10 1018.6
SOUTHWEST PASS   1800          130/  9/ 13   N/A
NEW CANAL        1800   86 81  150/  7/ 13 1017.3
SHELL BEACH      1800   82 82  130/ 11/ 13 1018.5

OFFSHORE STATIONS

STATION/POSITION TIME  TEMP    WIND        PRES    WAVE
                       AIR SEA DIR/SP/G            HT/PER
                 (UTC) (F)     (DEG/KT/KT) (MB)    (FT/S)
64 S DAUPHIN ISL 1800   79 80  130/ 10/ 14 1019.4

$$





USA.gov is the U.S. government's official web portal to all federal, state and local government web resources and services.